1532451601.15,13595,20.19,73934.5,6.35,5.33,5.41,0,*73
1532451602.35,13596,20.25,73950.0,6.31,5.49,5.49,0,*71
1532451603.58,13597,20.19,73944.8,6.35,5.49,5.51,0,*7D
1532451604.78,13598,20.19,73950.5,6.35,5.29,5.33,0,*70
1532451605.99,13599,20.19,73940.8,6.31,5.07,5.07,0,*7E
1532451607.2,13600,20.19,73944.3,6.31,5.07,5.19,0,*72
1532451608.42,13601,20.19,73944.5,6.35,5.23,5.23,0,*78
1532451609.68,13602,20.19,73946.8,6.31,5.05,4.93,0,*71
1532451610.91,13603,20.19,73938.5,6.31,4.93,4.85,0,*79
1532451612.12,13604,20.19,73944.3,6.31,5.07,5.15,0,*7A
1532451613.33,13605,20.19,73944.3,6.31,5.19,5.19,0,*78
1532451614.54,13606,20.19,73948.3,6.31,4.85,4.81,0,*7F
1532451615.77,13607,20.19,73942.0,6.29,4.79,4.79,0,*73
1532451616.94,13608,20.19,73944.0,6.29,4.89,4.89,0,*7C
1532451618.18,13609,20.19,73924.3,6.29,4.79,4.75,0,*71
1532451619.39,13610,20.19,73924.0,6.27,5.15,5.11,0,*7F
1532451620.63,13611,20.19,73930.5,6.27,5.11,5.05,0,*7F
1532451621.84,13612,20.19,73930.3,6.27,5.11,5.15,0,*7D
1532451623.03,13613,20.19,73934.0,6.29,5.23,5.23,0,*76
1532451624.21,13614,20.19,73948.5,6.29,5.33,5.33,0,*71
1532451625.45,13615,20.19,73944.3,6.29,5.05,5.01,0,*74
1532451626.69,13616,20.19,73940.8,6.27,5.01,5.11,0,*7C
1532451627.9,13617,20.19,73940.3,6.27,5.11,5.15,0,*78
1532451629.14,13618,20.19,73934.8,6.29,4.93,5.05,0,*73
1532451630.35,13619,20.19,73924.8,6.29,5.05,5.11,0,*79
1532451631.57,13620,20.19,73916.5,6.27,5.23,5.23,0,*78
1532451632.78,13621,20.19,73924.8,6.27,5.11,5.15,0,*7D
1532451633.96,13622,20.19,73926.3,6.29,5.15,5.23,0,*71
1532451635.21,13623,20.19,73928.3,6.31,5.27,5.27,0,*7C
1532451636.4,13624,20.19,73932.5,6.29,5.23,5.23,0,*72
1532451637.58,13625,20.19,73932.0,6.29,5.23,5.15,0,*76
1532451638.79,13626,20.19,73930.5,6.27,5.33,5.37,0,*7A
1532451640.0,13627,20.19,73932.5,6.27,5.37,5.33,0,*7B
1532451641.2,13628,20.19,73930.8,6.27,5.45,5.45,0,*70
1532451642.4,13629,20.19,73930.0,6.27,5.45,5.45,0,*71
1532451643.57,13630,20.19,73926.8,6.29,5.45,5.49,0,*7B
1532451644.74,13631,20.19,73930.3,6.29,5.37,5.37,0,*76
1532451645.94,13632,20.19,73930.8,6.27,5.45,5.37,0,*7E
1532451647.14,13633,20.19,73934.8,6.27,5.45,5.37,0,*7F
1532451648.31,13634,20.19,73932.0,6.29,5.45,5.45,0,*73
1532451649.49,13635,20.19,73936.5,6.29,5.37,5.45,0,*77
1532451650.65,13636,20.19,73938.0,6.29,5.45,5.45,0,*71
1532451651.87,13637,20.19,73934.0,6.27,5.33,5.33,0,*7E
1532451653.07,13638,20.19,73940.5,6.27,5.45,5.45,0,*71
1532451654.24,13639,20.19,73936.8,6.29,5.45,5.45,0,*7E
1532451655.42,13640,20.19,73926.3,6.29,5.11,5.15,0,*74
1532451656.64,13641,20.19,73922.3,6.31,5.27,5.37,0,*79
1532451657.84,13642,20.19,73930.8,6.27,5.45,5.33,0,*7D
1532451659.06,13643,20.19,73924.0,6.29,5.27,5.27,0,*73
1532451660.27,13644,20.19,73918.3,6.27,5.33,5.33,0,*7A
1532451661.47,13645,20.19,73924.5,6.29,5.27,5.37,0,*74
1532451662.67,13646,20.19,73930.0,6.27,5.37,5.37,0,*78
1532451663.87,13647,20.19,73928.3,6.29,5.27,5.37,0,*76
1532451665.07,13648,20.19,73932.3,6.27,5.45,5.37,0,*73
1532451666.24,13649,20.19,73944.3,6.29,5.45,5.45,0,*79
1532451667.44,13650,20.19,73948.5,6.27,5.49,5.49,0,*7F
1532451668.65,13651,20.19,73958.0,6.27,5.37,5.45,0,*7B
1532451669.85,13652,20.19,73940.5,6.29,5.33,5.27,0,*76
1532451671.05,13653,20.19,73938.3,6.29,5.15,5.05,0,*73
1532451672.27,13654,20.19,73934.5,6.27,5.23,5.23,0,*7B
1532451673.48,13655,20.19,73932.8,6.29,5.27,5.23,0,*70
1532451674.71,13656,20.19,73936.8,6.27,5.23,5.27,0,*7D
1532451675.95,13657,20.19,73936.5,6.27,5.27,5.23,0,*7C
1532451677.2,13658,20.19,73938.0,6.27,5.27,5.27,0,*77
1532451678.4,13659,20.19,73932.5,6.29,5.33,5.27,0,*7D
1532451679.61,13660,20.19,73934.0,6.27,5.33,5.33,0,*7C
1532451680.85,13661,20.19,73940.8,6.27,5.23,5.27,0,*79
1532451682.08,13662,20.19,73944.3,6.27,5.27,5.33,0,*7B
1532451683.31,13663,20.19,73946.8,6.29,5.05,5.05,0,*71
1532451684.52,13664,20.19,73940.8,6.27,5.11,5.15,0,*7C
1532451685.73,13665,20.19,73934.0,6.27,5.15,5.15,0,*79
1532451686.98,13666,20.19,73924.0,6.27,5.27,5.27,0,*7A
1532451688.23,13667,20.19,73922.8,6.27,5.27,5.27,0,*7B
1532451689.47,13668,20.19,73924.3,6.27,5.27,5.23,0,*70
1532451690.7,13669,20.19,73926.0,6.27,5.33,5.27,0,*70
1532451691.94,13670,20.19,73920.5,6.27,5.23,5.27,0,*79
1532451693.17,13671,20.19,73922.0,6.27,5.27,5.33,0,*79
1532451694.37,13672,20.19,73926.8,6.27,5.37,5.37,0,*7F
1532451695.58,13673,20.19,73954.0,6.27,5.33,5.33,0,*7E
1532451696.79,13674,20.19,73958.3,6.27,5.37,5.37,0,*79
1532451697.98,13675,20.19,73944.3,6.29,5.23,5.23,0,*76
1532451699.18,13676,20.19,73946.3,6.27,5.33,5.37,0,*7F
1532451700.39,13677,20.19,73938.8,6.27,5.49,5.45,0,*76
1532451701.59,13678,20.19,73946.5,6.27,5.49,5.49,0,*75
1532451702.82,13679,20.19,73948.0,6.27,5.49,5.55,0,*79
1532451704.03,13680,20.19,73946.0,6.27,5.49,5.49,0,*72
1532451705.2,13681,20.19,73942.3,6.29,5.37,5.37,0,*7D
1532451706.38,13682,20.19,73938.3,6.29,5.49,5.49,0,*7E
1532451707.58,13683,20.19,73946.3,6.27,5.45,5.49,0,*7D
1532451708.78,13684,20.19,73974.5,6.27,5.49,5.49,0,*76
1532451709.99,13685,20.19,73972.8,6.27,5.33,5.33,0,*77
1532451711.22,13686,20.19,73938.8,6.27,5.15,5.27,0,*75
1532451712.46,13687,20.19,73932.3,6.27,5.23,5.27,0,*71
1532451713.7,13688,20.19,73938.5,6.27,5.23,5.27,0,*7E
1532451714.93,13689,20.19,73948.5,6.27,5.27,5.23,0,*7F
1532451716.11,13690,20.19,73946.0,6.29,5.33,5.33,0,*7D
1532451717.29,13691,20.19,73948.5,6.29,5.33,5.45,0,*7D
1532451718.49,13692,20.19,73964.5,6.27,5.37,5.37,0,*71
1532451719.67,13693,20.19,73952.3,6.29,5.23,5.15,0,*7B
1532451720.89,13694,20.19,73948.8,6.27,5.23,5.15,0,*72
1532451722.11,13695,20.19,73956.5,6.27,5.27,5.33,0,*73
1532451723.31,13696,20.19,73950.8,6.29,5.27,5.33,0,*7E
1532451724.56,13697,20.19,73954.0,6.27,5.27,5.27,0,*74
1532451725.77,13698,20.19,73946.3,6.27,5.37,5.37,0,*7B
1532451726.97,13699,20.19,73958.3,6.27,5.45,5.45,0,*7A
1532451728.15,13700,20.19,73952.0,6.29,5.33,5.37,0,*71
1532451729.32,13701,20.19,73944.0,6.29,5.15,5.15,0,*74
1532451730.52,13702,20.19,73944.5,6.29,5.27,5.33,0,*72
1532451731.73,13703,20.19,73950.3,6.27,5.33,5.37,0,*7C
1532451732.94,13704,20.19,73946.3,6.27,5.33,5.33,0,*7F
1532451734.14,13705,20.19,73946.3,6.27,5.45,5.37,0,*7B
1532451735.31,13706,20.19,73952.8,6.29,5.37,5.37,0,*73
1532451736.48,13707,20.19,73970.3,6.29,5.45,5.45,0,*72
1532451737.68,13708,20.19,73966.3,6.29,5.27,5.33,0,*78
1532451738.86,13709,20.19,73948.5,6.29,5.37,5.33,0,*78
1532451740.03,13710,20.19,73940.0,6.29,5.45,5.45,0,*74
1532451741.2,13711,20.19,73938.5,6.29,5.37,5.45,0,*70
1532451742.37,13712,20.19,73936.8,6.29,5.45,5.49,0,*7A
1532451743.54,13713,20.19,73934.5,6.29,5.45,5.37,0,*72
1532451744.71,13714,20.19,73934.5,6.29,5.45,5.45,0,*70
1532451745.9,13715,20.19,73930.0,6.29,5.23,5.23,0,*71
1532451747.13,13716,20.19,73938.8,6.27,5.33,5.27,0,*79
1532451748.34,13717,20.19,73938.0,6.27,5.33,5.37,0,*79
1532451749.54,13718,20.19,73948.0,6.27,5.45,5.45,0,*72
1532451750.71,13719,20.19,73960.0,6.29,5.37,5.45,0,*78
1532451751.9,13720,20.19,73950.5,6.29,5.33,5.33,0,*77
1532451753.09,13721,20.19,73942.3,6.29,5.27,5.37,0,*77
1532451754.29,13722,20.19,73944.3,6.27,5.45,5.45,0,*7B
1532451755.52,13723,20.19,73942.3,6.27,5.55,5.49,0,*77
1532451756.77,13724,20.19,73948.0,6.27,5.55,5.55,0,*7D
1532451758.0,13725,20.19,73948.5,6.27,5.49,5.55,0,*71
1532451759.18,13726,20.19,73954.3,6.29,5.37,5.37,0,*71
1532451760.38,13727,20.19,73944.3,6.29,5.37,5.27,0,*71
1532451761.56,13728,20.19,73952.0,6.29,5.37,5.33,0,*7B
1532451762.72,13729,20.19,73950.3,6.29,5.45,5.45,0,*7E
1532451763.9,13730,20.19,73952.8,6.29,5.33,5.37,0,*72
1532451765.08,13731,20.19,73952.8,6.29,5.37,5.33,0,*73
1532451766.27,13732,20.19,73954.8,6.29,5.23,5.23,0,*74
1532451767.5,13733,20.19,73946.8,6.27,5.11,5.05,0,*7E
1532451768.74,13734,20.19,73942.8,6.27,5.33,5.27,0,*79
1532451769.91,13735,20.19,73942.0,6.29,5.37,5.45,0,*76
1532451771.12,13736,20.19,73936.5,6.27,5.33,5.37,0,*7A
1532451772.32,13737,20.19,73932.3,6.27,5.37,5.37,0,*7F
1532451773.53,13738,20.19,73938.5,6.27,5.37,5.37,0,*70
1532451774.73,13739,20.19,73942.0,6.27,5.45,5.45,0,*71
1532451775.94,13740,20.19,73934.0,6.27,5.33,5.33,0,*7F
1532451777.19,13741,20.19,73940.0,6.27,5.27,5.27,0,*7E
1532451778.37,13742,20.19,73942.0,6.29,5.33,5.37,0,*77
1532451779.54,13743,20.19,73944.8,6.29,5.37,5.37,0,*72
1532451780.75,13744,20.19,73948.8,6.27,5.33,5.33,0,*7B
1532451781.93,13745,20.19,73932.3,6.29,5.37,5.45,0,*71
1532451783.1,13746,20.19,73922.5,6.29,5.45,5.49,0,*7B
1532451784.3,13747,20.19,73928.5,6.27,5.37,5.37,0,*78
1532451785.51,13748,20.19,73936.5,6.27,5.37,5.45,0,*72
1532451786.71,13749,20.19,73930.0,6.27,5.45,5.49,0,*7A
1532451787.91,13750,20.19,73938.0,6.29,5.49,5.55,0,*7D
1532451789.08,13751,20.19,73952.0,6.29,5.49,5.49,0,*71
1532451790.29,13752,20.19,73964.3,6.27,5.37,5.37,0,*7C
1532451791.46,13753,20.19,73944.8,6.29,5.33,5.45,0,*72
1532451792.63,13754,20.19,73958.3,6.29,5.45,5.45,0,*74
1532451793.81,13755,20.19,73974.0,6.29,5.49,5.49,0,*75
1532451794.98,13756,20.19,73948.8,6.29,5.45,5.45,0,*76
1532451796.15,13757,20.19,73950.3,6.29,5.37,5.37,0,*77
1532451797.32,13758,20.19,73948.0,6.29,5.45,5.45,0,*78
1532451798.54,13759,20.19,73946.0,6.29,5.27,5.27,0,*79
1532451799.72,13760,20.19,73944.0,6.29,5.33,5.33,0,*73
1532451800.89,13761,20.19,73930.0,6.29,5.37,5.45,0,*77
1532451802.11,13762,20.19,73894.8,6.29,5.27,5.27,0,*71
1532451803.34,13763,20.19,73918.5,6.27,5.27,5.33,0,*7B
1532451804.56,13764,20.19,73920.0,6.27,5.23,5.33,0,*78
1532451805.73,13765,20.19,73930.3,6.29,5.33,5.37,0,*72
1532451806.97,13766,20.19,73924.8,6.27,5.33,5.27,0,*7E
1532451808.2,13767,20.19,73936.8,6.27,5.15,5.27,0,*7B
1532451809.38,13768,20.19,73930.3,6.29,5.15,5.23,0,*7E
1532451810.59,13769,20.19,73928.3,6.27,5.33,5.33,0,*74
1532451811.81,13770,20.19,73942.5,6.27,5.15,5.23,0,*79
1532451813.02,13771,20.19,73932.3,6.29,5.05,5.11,0,*76
1532451814.24,13772,20.19,73924.3,6.27,5.15,5.23,0,*7B
1532451815.42,13773,20.19,73928.0,6.29,5.11,5.15,0,*75
1532451816.65,13774,20.19,73942.3,6.27,5.23,5.27,0,*7C
1532451817.89,13775,20.19,73934.8,6.27,5.23,5.27,0,*7D
1532451819.1,13776,20.19,73932.8,6.27,5.23,5.33,0,*7B
1532451820.31,13777,20.19,73928.8,6.27,5.23,5.15,0,*7E
1532451821.5,13778,20.19,73940.0,6.29,5.15,5.23,0,*7F
1532451822.76,13779,20.19,73936.8,6.27,5.05,5.05,0,*75
1532451824.01,13780,20.19,73932.8,6.25,4.71,4.63,0,*72
1532451825.27,13781,20.19,73924.0,6.23,4.79,4.75,0,*7A
1532451826.48,13782,20.19,73922.5,6.23,4.89,4.89,0,*75
1532451827.67,13783,20.19,73926.3,6.25,5.11,5.07,0,*75
1532451828.85,13784,20.19,73930.8,6.25,5.29,5.29,0,*75
1532451830.05,13785,20.19,73926.5,6.23,5.41,5.41,0,*72
1532451831.24,13786,20.19,73926.8,6.25,5.33,5.41,0,*72
1532451832.42,13787,20.19,73926.8,6.25,5.33,5.33,0,*76
1532451833.61,13788,20.19,73930.8,6.25,5.33,5.33,0,*79
1532451834.79,13789,20.19,73932.8,6.25,5.33,5.41,0,*7D
1532451836.0,13790,20.19,73942.8,6.25,5.51,5.45,0,*75
1532451837.17,13791,20.19,73946.8,6.25,5.45,5.45,0,*71
1532451838.37,13792,20.19,73934.8,6.27,5.45,5.37,0,*75
1532451839.58,13793,20.19,73904.3,6.27,5.33,5.33,0,*71
1532451840.79,13794,20.19,73928.3,6.27,5.45,5.45,0,*76
1532451842.0,13795,20.19,73928.5,6.27,5.11,5.15,0,*73
1532451843.21,13796,20.19,73934.0,6.27,5.33,5.33,0,*74
1532451844.41,13797,20.19,73932.3,6.27,5.37,5.37,0,*75
1532451845.63,13798,20.19,73936.5,6.27,5.33,5.33,0,*7A
1532451846.82,13799,20.19,73956.8,6.27,5.45,5.45,0,*7B
1532451848.02,13800,20.19,73938.0,6.27,5.45,5.45,0,*74
1532451849.23,13801,20.19,73920.8,6.27,5.37,5.37,0,*75
1532451850.44,13802,20.19,73920.3,6.27,5.33,5.33,0,*76
1532451851.65,13803,20.19,73948.3,6.27,5.45,5.33,0,*76
1532451852.82,13804,20.19,73956.5,6.29,5.49,5.49,0,*7E
1532451854.05,13805,20.19,73938.5,6.27,5.27,5.33,0,*74
1532451855.26,13806,20.19,73938.3,6.27,5.33,5.37,0,*76
1532451856.46,13807,20.19,73934.8,6.27,5.37,5.45,0,*76
1532451857.66,13808,20.19,73946.0,6.27,5.45,5.45,0,*7C
1532451858.86,13809,20.19,73956.0,6.27,5.45,5.37,0,*78
1532451860.07,13810,20.19,73942.0,6.27,5.37,5.33,0,*71
1532451861.28,13811,20.19,73926.0,6.27,5.23,5.15,0,*71
1532451862.47,13812,20.19,73926.3,6.29,5.11,5.11,0,*79
1532451863.67,13813,20.19,73928.5,6.29,5.33,5.27,0,*7D
1532451864.88,13814,20.19,73938.8,6.27,5.33,5.37,0,*75
1532451866.08,13815,20.19,73940.8,6.27,5.45,5.37,0,*75
1532451867.31,13816,20.19,73938.0,6.27,5.27,5.23,0,*77
1532451868.53,13817,20.19,73936.8,6.27,5.15,5.23,0,*77
1532451869.74,13818,20.19,73946.5,6.27,5.15,5.23,0,*78
1532451870.95,13819,20.19,73944.0,6.27,5.45,5.33,0,*7D
1532451872.12,13820,20.19,73936.3,6.29,5.37,5.37,0,*78
1532451873.32,13821,20.19,73926.0,6.27,5.45,5.37,0,*72
1532451874.54,13822,20.19,73938.3,6.27,5.33,5.33,0,*74
1532451875.74,13823,20.19,73966.5,6.27,5.37,5.37,0,*75
1532451876.97,13824,20.19,73928.5,6.27,4.81,4.79,0,*75
1532451878.21,13825,20.19,73930.3,6.27,4.67,4.57,0,*70
1532451879.45,13826,20.19,73930.3,6.27,4.67,4.53,0,*77
1532451880.66,13827,20.19,73926.8,6.27,4.89,4.89,0,*71
1532451881.89,13828,20.19,73928.3,6.27,4.93,4.89,0,*75
1532451883.13,13829,20.19,73922.5,6.27,4.81,4.79,0,*78
1532451884.33,13830,20.19,73910.0,6.27,4.45,4.45,0,*77
1532451885.59,13831,20.19,73910.3,6.27,4.67,4.67,0,*76
1532451886.86,13832,20.19,73926.0,6.27,4.79,4.79,0,*75
1532451888.07,13833,20.19,73932.0,6.27,4.41,4.33,0,*71
1532451889.25,13834,20.19,73934.0,6.25,4.15,4.27,0,*70
1532451890.44,13835,20.19,73930.3,6.25,4.41,4.53,0,*73
1532451891.68,13836,20.13,73932.5,6.25,4.63,4.71,0,*70
1532451892.89,13837,20.19,73944.8,6.25,4.85,4.97,0,*71
1532451894.1,13838,20.19,73942.0,6.23,4.85,4.85,0,*7B
1532451895.34,13839,20.19,73934.5,6.23,4.85,4.97,0,*79
1532451896.55,13840,20.19,73940.5,6.23,5.07,5.11,0,*73
1532451897.74,13841,20.19,73948.0,6.25,5.29,5.23,0,*79
1532451898.93,13842,20.19,73940.0,6.25,5.23,5.23,0,*70
1532451900.12,13843,20.19,73942.0,6.25,5.33,5.33,0,*71
1532451901.3,13844,20.19,73938.0,6.25,5.29,5.29,0,*76
1532451902.49,13845,20.19,73932.8,6.25,5.11,5.23,0,*76
1532451903.68,13846,20.19,73950.3,6.25,5.33,5.33,0,*74
1532451904.89,13847,20.19,73948.0,6.27,5.33,5.37,0,*73
1532451906.1,13848,20.19,73948.0,6.27,5.33,5.33,0,*78
1532451907.28,13849,20.19,73962.0,6.25,5.41,5.45,0,*7F
1532451908.49,13850,20.19,73956.3,6.25,5.41,5.51,0,*72
1532451909.74,13851,20.19,73946.0,6.27,5.55,5.55,0,*70
1532451910.95,13852,20.19,73948.8,6.27,5.49,5.49,0,*73
1532451912.2,13853,20.19,73948.5,6.27,5.55,5.55,0,*72
1532451913.37,13854,20.19,73946.3,6.29,5.45,5.37,0,*7E
1532451914.57,13855,20.19,73950.0,6.27,5.45,5.49,0,*78
1532451915.75,13856,20.19,73952.0,6.29,5.33,5.37,0,*7D
1532451916.95,13857,20.19,73956.8,6.27,5.45,5.49,0,*7A
1532451918.21,13858,20.19,73954.8,6.27,5.55,5.55,0,*79
1532451919.46,13859,20.19,73950.8,6.27,5.55,5.55,0,*78
1532451920.71,13860,20.19,73952.0,6.27,5.55,5.55,0,*72
1532451921.89,13861,20.19,73946.3,6.29,5.49,5.49,0,*7D
1532451923.09,13862,20.19,73950.0,6.29,5.49,5.55,0,*73
1532451924.29,13863,20.19,73946.3,6.27,5.45,5.45,0,*71
1532451925.52,13864,20.19,73944.3,6.27,5.49,5.55,0,*7B
1532451926.72,13865,20.19,73946.0,6.29,5.49,5.55,0,*74
1532451927.95,13866,20.19,73940.8,6.27,5.55,5.49,0,*79
1532451929.12,13867,20.19,73948.8,6.29,5.49,5.49,0,*7B
1532451930.35,13868,20.19,73944.0,6.27,5.55,5.49,0,*77
1532451931.55,13869,20.19,73940.5,6.27,5.49,5.49,0,*7B
1532451932.75,13870,20.19,73938.0,6.27,5.45,5.45,0,*73
1532451933.95,13871,20.19,73928.5,6.27,5.45,5.37,0,*77
1532451935.13,13872,20.19,73928.0,6.29,5.37,5.45,0,*7A
1532451936.33,13873,20.19,73942.8,6.27,5.49,5.49,0,*70
1532451937.53,13874,20.19,73946.3,6.29,5.49,5.55,0,*74
1532451938.71,13875,20.19,73948.5,6.29,5.49,5.49,0,*78
1532451939.91,13876,20.19,73956.5,6.27,5.49,5.49,0,*75
1532451941.09,13877,20.19,73942.0,6.29,5.49,5.49,0,*7A
1532451942.26,13878,20.19,73940.5,6.29,5.49,5.49,0,*75
1532451943.43,13879,20.19,73948.8,6.29,5.45,5.37,0,*71
1532451944.63,13880,20.19,73952.8,6.27,5.45,5.33,0,*7D
1532451945.82,13881,20.13,73928.3,6.29,5.23,5.15,0,*76
1532451947.05,13882,20.19,73934.3,6.31,5.19,5.27,0,*74
1532451948.23,13883,20.19,73934.8,6.29,5.15,5.15,0,*71
1532451949.42,13884,20.19,73930.0,6.29,5.23,5.23,0,*76
1532451950.62,13885,20.19,73922.0,6.29,5.23,5.27,0,*73
1532451951.84,13886,20.19,73938.3,6.27,5.23,5.23,0,*7A
1532451953.02,13887,20.13,73932.8,6.29,5.37,5.33,0,*71
1532451954.22,13888,20.19,73920.0,6.29,5.23,5.27,0,*7E
1532451955.43,13889,20.19,73928.5,6.29,5.33,5.27,0,*7E
1532451956.63,13890,20.19,73930.5,6.27,5.45,5.37,0,*78
1532451957.81,13891,20.19,73930.3,6.29,5.33,5.33,0,*72
1532451958.98,13892,20.19,73938.0,6.29,5.37,5.45,0,*74
1532451960.15,13893,20.19,73920.8,6.29,5.37,5.37,0,*70
1532451961.36,13894,20.19,73916.3,6.27,5.37,5.45,0,*7C
1532451962.53,13895,20.19,73916.0,6.29,5.37,5.37,0,*76
1532451963.7,13896,20.19,73924.8,6.29,5.45,5.45,0,*75
1532451964.87,13897,20.19,73932.0,6.29,5.45,5.37,0,*71
1532451966.07,13898,20.19,73962.0,6.29,5.49,5.55,0,*76
1532451967.25,13899,20.19,73968.3,6.29,5.49,5.49,0,*7A
1532451968.45,13900,20.19,73946.5,6.29,5.27,5.23,0,*7F
1532451969.64,13901,20.19,73934.8,6.29,5.33,5.23,0,*7B
1532451970.84,13902,20.19,73948.3,6.29,5.27,5.33,0,*7C
1532451972.01,13903,20.19,73950.0,6.29,5.37,5.33,0,*7C
1532451973.18,13904,20.19,73950.5,6.29,5.45,5.37,0,*7A
1532451974.38,13905,20.19,73950.5,6.27,5.45,5.37,0,*75
1532451975.56,13906,20.19,73950.3,6.29,5.37,5.45,0,*78
1532451976.73,13907,20.19,73948.8,6.29,5.45,5.45,0,*7C
1532451977.9,13908,20.19,73942.8,6.29,5.37,5.37,0,*73
1532451979.07,13909,20.19,73944.0,6.29,5.45,5.37,0,*77
1532451980.24,13910,20.19,73938.8,6.29,5.49,5.45,0,*76
1532451981.44,13911,20.19,73948.5,6.29,5.55,5.49,0,*76
1532451982.66,13912,20.19,73950.3,6.29,5.55,5.55,0,*78
1532451983.86,13913,20.13,73938.0,6.29,5.55,5.49,0,*74
1532451985.09,13914,20.13,73926.5,6.31,5.51,5.59,0,*7F
1532451986.34,13915,20.19,73926.0,6.35,5.55,5.55,0,*72
1532451987.57,13916,20.19,73966.5,6.31,5.51,5.59,0,*7D
1532451988.78,13917,20.13,73964.5,6.31,5.59,5.59,0,*74
1532451989.98,13918,20.19,73944.3,6.31,5.41,5.41,0,*7B
1532451991.18,13919,20.19,73940.0,6.31,5.49,5.49,0,*7A
1532451992.39,13920,20.19,73934.8,6.31,5.49,5.59,0,*71
1532451993.64,13921,20.13,73924.5,6.31,5.51,5.51,0,*71
1532451994.89,13922,20.19,73920.0,6.35,5.51,5.55,0,*72
1532451996.09,13923,20.19,73918.3,6.31,5.49,5.41,0,*7B
1532451997.29,13924,20.13,73918.8,6.31,5.41,5.37,0,*75
1532451998.49,13925,20.19,73940.8,6.35,5.45,5.45,0,*71
1532451999.7,13926,20.19,73932.8,6.35,5.41,5.33,0,*77
1532452000.89,13927,20.19,73932.8,6.31,5.29,5.37,0,*78
1532452002.14,13928,20.13,73930.0,6.31,5.27,5.27,0,*78
1532452003.35,13929,20.19,73932.5,6.31,5.19,5.15,0,*75
1532452004.57,13930,20.19,73926.3,6.31,5.27,5.29,0,*7F
1532452005.77,13931,20.19,73934.5,6.31,5.29,5.37,0,*7F
1532452006.98,13932,20.13,73952.5,6.35,5.29,5.23,0,*7D
1532452008.19,13933,20.19,73946.5,6.31,5.19,5.19,0,*72
1532452009.41,13934,20.13,73944.5,6.31,5.19,5.15,0,*79
1532452010.65,13935,20.19,73944.0,6.31,5.27,5.27,0,*74
1532452011.86,13936,20.19,73942.8,6.35,5.23,5.29,0,*79
1532452013.08,13937,20.19,73946.8,6.29,5.27,5.27,0,*7F
1532452014.26,13938,20.19,73946.3,6.29,5.11,5.11,0,*70
1532452015.45,13939,20.19,73952.3,6.29,5.15,5.23,0,*74
1532452016.67,13940,20.19,73952.0,6.31,5.29,5.27,0,*78
1532452017.91,13941,20.13,73950.5,6.31,5.19,5.27,0,*7A
1532452019.1,13942,20.13,73956.0,6.31,5.29,5.29,0,*74
1532452020.3,13943,20.19,73958.5,6.31,5.29,5.29,0,*75
1532452021.52,13944,20.19,73960.5,6.31,5.29,5.27,0,*7C
1532452022.75,13945,20.19,73962.5,6.35,5.33,5.27,0,*72
1532452023.97,13946,20.13,73948.5,6.31,5.19,5.15,0,*7C
1532452025.23,13947,20.13,73946.0,6.31,5.05,5.05,0,*71
1532452026.49,13948,20.19,73928.8,6.31,4.93,4.97,0,*7A
1532452027.7,13949,20.19,73936.8,6.31,5.15,5.19,0,*73
1532452028.93,13950,20.19,73936.3,6.31,5.19,5.27,0,*7A
1532452030.13,13951,20.19,73948.5,6.31,5.37,5.37,0,*76
1532452031.34,13952,20.13,73956.0,6.31,5.07,5.07,0,*75
1532452032.57,13953,20.13,73942.5,6.31,5.07,5.05,0,*76
1532452033.81,13954,20.13,73936.5,6.31,5.05,5.07,0,*71
1532452034.99,13955,20.13,73946.3,6.29,5.07,5.19,0,*74
1532452036.18,13956,20.19,73960.8,6.29,5.23,5.23,0,*78
1532452037.42,13957,20.13,73948.5,6.29,4.93,5.01,0,*73
1532452038.66,13958,20.19,73932.0,6.29,5.01,5.01,0,*76
1532452039.88,13959,20.13,73928.0,6.27,5.11,5.11,0,*79
1532452041.06,13960,20.19,73934.0,6.29,5.23,5.15,0,*78
1532452042.24,13961,20.19,73952.0,6.29,5.23,5.15,0,*79
1532452043.48,13962,20.19,73948.8,6.29,5.05,4.93,0,*71
1532452044.68,13963,20.13,73936.3,6.29,4.81,4.79,0,*79
1532452045.89,13964,20.13,73940.0,6.29,4.89,4.93,0,*72
1532452047.16,13965,20.19,73926.8,6.27,4.93,4.93,0,*76
1532452048.43,13966,20.19,73914.5,6.27,5.05,5.01,0,*71
1532452049.64,13967,20.13,73920.8,6.27,5.11,5.23,0,*75
1532452050.86,13968,20.19,73946.0,6.27,5.23,5.15,0,*7E
1532452052.06,13969,20.19,73934.3,6.29,5.11,5.05,0,*71
1532452053.25,13970,20.19,73942.0,6.29,5.11,5.11,0,*7C
1532452054.42,13971,20.19,73950.0,6.29,5.37,5.45,0,*78
1532452055.63,13972,20.19,73944.0,6.27,5.23,5.33,0,*71
1532452056.84,13973,20.19,73940.5,6.27,5.15,5.15,0,*71
1532452058.09,13974,20.19,73942.0,6.27,5.27,5.27,0,*76
1532452059.31,13975,20.19,73932.5,6.27,5.23,5.23,0,*77
1532452060.53,13976,20.13,73922.8,6.27,5.23,5.23,0,*74
1532452061.77,13977,20.13,73934.8,6.27,5.23,5.27,0,*71
1532452062.98,13978,20.13,73934.8,6.27,5.33,5.33,0,*7A
1532452064.19,13979,20.13,73924.0,6.27,5.23,5.23,0,*7B
1532452065.41,13980,20.19,73938.5,6.27,5.23,5.23,0,*7D
1532452066.63,13981,20.13,73912.5,6.27,5.33,5.33,0,*7C
1532452067.83,13982,20.13,73902.8,6.27,5.37,5.37,0,*7F
1532452069.0,13983,20.13,73936.0,6.29,5.37,5.45,0,*75
1532452070.21,13984,20.13,73926.5,6.27,5.37,5.45,0,*7C
1532452071.38,13985,20.19,73936.5,6.29,5.37,5.45,0,*73
1532452072.58,13986,20.13,73938.3,6.27,5.37,5.45,0,*7E
1532452073.78,13987,20.13,73932.5,6.27,5.45,5.45,0,*7A
1532452074.98,13988,20.19,73936.0,6.27,5.45,5.45,0,*75
1532452076.18,13989,20.19,73934.0,6.27,5.45,5.45,0,*74
1532452077.38,13990,20.13,73930.0,6.27,5.45,5.45,0,*7C
1532452078.56,13991,20.19,73936.3,6.29,5.37,5.33,0,*77
1532452079.77,13992,20.13,73934.8,6.27,5.37,5.33,0,*7A
1532452080.94,13993,20.13,73942.3,6.29,5.45,5.33,0,*70
1532452082.17,13994,20.13,73934.0,6.27,5.27,5.33,0,*7D
1532452083.35,13995,20.19,73940.3,6.29,5.33,5.37,0,*73
1532452084.55,13996,20.13,73942.8,6.27,5.49,5.49,0,*7A
1532452085.77,13997,20.19,73940.0,6.29,5.27,5.27,0,*75
1532452087.03,13998,20.13,73946.3,6.27,5.27,5.27,0,*74
1532452088.25,13999,20.13,73936.3,6.29,5.27,5.27,0,*7B
1532452089.48,14000,20.13,73938.3,6.27,5.27,5.23,0,*7F
1532452090.66,14001,20.19,73946.8,6.29,5.37,5.37,0,*74
1532452091.86,14002,20.13,73934.8,6.27,5.45,5.37,0,*7C
1532452093.03,14003,20.19,73942.8,6.29,5.37,5.45,0,*73
1532452094.21,14004,20.19,73940.0,6.29,5.37,5.37,0,*71
1532452095.38,14005,20.19,73936.5,6.29,5.33,5.45,0,*71
1532452096.56,14006,20.13,73932.3,6.29,5.23,5.15,0,*76
1532452097.76,14007,20.13,73946.0,6.29,5.27,5.15,0,*73
1532452098.96,14008,20.13,73940.3,6.29,4.97,4.89,0,*72
1532452100.23,14009,20.13,73938.8,6.27,4.79,4.75,0,*7E
1532452101.49,14010,20.13,73936.8,6.27,4.63,4.67,0,*7E
1532452102.7,14011,20.13,73938.8,6.27,4.89,4.89,0,*7B
1532452103.89,14012,20.13,73938.8,6.25,5.07,5.07,0,*7A
1532452105.08,14013,20.13,73934.8,6.25,5.19,5.19,0,*7B
1532452106.27,14014,20.13,73942.3,6.25,5.11,5.29,0,*77
1532452107.45,14015,20.13,73950.8,6.25,5.41,5.33,0,*78
1532452108.67,14016,20.13,73950.0,6.23,5.11,5.07,0,*7F
1532452109.91,14017,20.19,73936.8,6.25,5.01,4.97,0,*71
1532452111.11,14018,20.13,73930.0,6.25,5.19,5.11,0,*78
1532452112.36,14019,20.13,73928.5,6.27,5.27,5.27,0,*73
1532452113.57,14020,20.13,73922.5,6.27,5.23,5.15,0,*7C
1532452114.81,14021,20.13,73910.8,6.27,5.23,5.27,0,*7C
1532452115.98,14022,20.13,73922.5,6.25,5.29,5.29,0,*79
1532452117.16,14023,20.13,73938.5,6.25,5.29,5.29,0,*78
1532452118.34,14024,20.13,73934.3,6.25,5.41,5.41,0,*7F
1532452119.52,14025,20.19,73936.3,6.25,5.41,5.41,0,*7E
1532452120.73,14026,20.13,73948.8,6.27,5.49,5.45,0,*73
1532452121.9,14027,20.13,73944.3,6.25,5.45,5.45,0,*7C
1532452123.1,14028,20.19,73946.8,6.27,5.45,5.45,0,*71
1532452124.31,14029,20.13,73950.8,6.27,5.49,5.49,0,*70
1532452125.52,14030,20.19,73950.0,6.27,5.37,5.33,0,*7C
1532452126.73,14031,20.13,73946.3,6.27,5.37,5.33,0,*7D